星链-30416 (STARLINK-30416 )

导读 | 星芒AI

STARLINK-30416 是 SpaceX Starlink 项目中的一颗低轨通信卫星,属于第三代 Starlink 卫星(v1.5)。该卫星于2023年发射,旨在为全球用户提供高速互联网服务。它运行在约550公里高的近地轨道,采用先进的推进系统和激光通信技术,以提高网络效率和减少延迟。Starlink 卫星群致力于构建全球覆盖的宽带网络,尤其服务于偏远地区。STARLINK-30416 的部署进一步增强了 Starlink 网络的稳定性和容量。

基本信息
目录编号:
57847
目录名称:
STARLINK-30416
国际标识:
2023-141H
轨道中心:
EARTH
卫星名称:
星链-30416
卫星全名:
星链-30416 (STARLINK-30416 )
卫星状态:
在轨 (已飞行829 天)
发射日期:
2023-09-12 UTC
国别 :
美国 (US)
星等 :
--
轨道信息
数据来源 国际轨道数据
星历时间: 2025-12-18T11:46:04+0800
1天前
查看轨道信息
半长轴: 6853.368km
偏心率: 0.0001288
轨道倾角: 53.162°
近地点辐角 81.940°
升交点赤经 302.893°
平近点角 278.175°
近地点: 474.35km
远地点: 476.116km
周期: 94.106分钟
每日圈数: 15.301949
详细信息
固有亮度:
5
最大亮度:
0.3
卫星平台:
Starlink v2.0 mini
覆盖范围:
全球
运营商:
太空探索技术公司
运营商所在国:
美国
制造商(研发单位):
太空探索技术公司
制造商所在国:
美国
使用方式:
暂无
卫星简介
星链(Starlink)计划是由太空探索技术公司(SpaceX)提出的一个巨型低轨卫星互联网星座项目,计划在2019年至2024年间在太空搭建由约1.2万颗卫星组成的“星链”网络,其中1584颗将部署在地球上空550千米处的近地轨道,并从2020年开始工作。该卫星仍在工作。
2D轨道图
3D轨道图
轨道高度分析图
轨道倾角分析图
轨道综合分析图
查看轨道综合分析图